DW8425 Weather Reports


Display with metric or nautical units.
time (UTC)temp
F
wind
direction
speed
MPH
gust
MPH
rain 1hr
in
rain 24hr
in
rain mn
in
humidity
%
barometer
mb
20260831171544 56 319 0.0 4.0 0.00 0.00 0.00 35 1015.5
20260831170040 54 318 1.0 4.0 0.00 0.00 0.00 36 1015.6
20260831164538 51 321 0.0 3.0 0.00 0.00 0.00 40 1015.7
20260831163035 48 308 1.0 3.0 0.00 0.00 0.00 45 1016.0
20260831161527 45 329 0.0 3.0 0.00 0.00 0.00 52 1016.2
20260831160028 43 144 0.0 3.0 0.00 0.00 0.00 54 1016.4
20260831154522 41 144 0.0 2.0 0.00 0.00 0.00 57 1016.8
20260831153020 38 140 0.0 3.0 0.00 0.00 0.00 59 1016.9
20260831151521 36 157 1.0 2.0 0.00 0.00 0.00 60 1017.1
20260831150018 33 157 0.0 5.0 0.00 0.00 0.00 65 1017.3
20260831144527 31 156 2.0 4.0 0.00 0.00 0.00 68 1017.2
20260831143019 28 147 0.0 1.0 0.00 0.00 0.00 73 1017.3
20260831141515 27 137 3.0 6.0 0.00 0.00 0.00 76 1017.2
20260831140012 26 161 0.0 0.0 0.00 0.00 0.00 74 1016.9
20260831134510 26 161 0.0 0.0 0.00 0.00 0.00 74 1016.6
20260831133009 26 161 0.0 2.0 0.00 0.00 0.00 74 1016.6
20260831131508 26 161 0.0 0.0 0.00 0.00 0.00 74 1016.2
20260831130006 26 161 0.0 1.0 0.00 0.00 0.00 73 1016.1
20260831124509 27 161 0.0 1.0 0.00 0.00 0.00 73 1016.0
20260831123002 27 161 0.0 0.0 0.00 0.00 0.00 72 1015.8
20260831121604 27 161 0.0 0.0 0.00 0.00 0.00 71 1015.7
20260831120057 28 161 0.0 0.0 0.00 0.00 0.00 70 1015.6
20260831114554 29 161 0.0 1.0 0.00 0.00 0.00 68 1015.6
20260831113053 29 161 0.0 1.0 0.00 0.00 0.00 68 1015.6
20260831111608 29 161 0.0 1.0 0.00 0.00 0.00 67 1015.4
20260831110117 30 162 0.0 0.0 0.00 0.00 0.00 66 1015.1
20260831104545 31 153 1.0 3.0 0.00 0.00 0.00 65 1015.1
20260831103043 31 149 0.0 1.0 0.00 0.00 0.00 65 1014.9
20260831101542 31 149 0.0 0.0 0.00 0.00 0.00 65 1014.8
20260831100038 31 150 0.0 0.0 0.00 0.00 0.00 64 1014.8
20260831094540 32 142 0.0 3.0 0.00 0.00 0.00 63 1014.6
20260831093033 32 142 0.0 1.0 0.00 0.00 0.00 62 1014.5
20260831091532 32 142 0.0 0.0 0.00 0.00 0.00 61 1014.4
20260831090030 33 142 0.0 1.0 0.00 0.00 0.00 60 1014.4
20260831084538 34 142 0.0 1.0 0.00 0.00 0.00 59 1014.4
20260831083025 35 142 0.0 0.0 0.00 0.00 0.00 58 1014.3
20260831081527 35 142 0.0 1.0 0.00 0.00 0.00 57 1014.4
20260831080020 35 142 0.0 0.0 0.00 0.00 0.00 57 1014.1
20260831074534 35 142 0.0 2.0 0.00 0.00 0.00 57 1014.0
20260831073038 37 142 0.0 2.0 0.00 0.00 0.00 54 1014.0
20260831071512 39 142 0.0 0.0 0.00 0.00 0.00 51 1013.9
20260831070010 39 157 0.0 1.0 0.00 0.00 0.00 50 1013.8
20260831064522 40 157 0.0 1.0 0.00 0.00 0.00 49 1013.6
20260831063011 40 146 0.0 1.0 0.00 0.00 0.00 48 1013.5
20260831061502 41 146 0.0 1.0 0.00 0.00 0.00 46 1013.4
20260831060110 42 148 0.0 0.0 0.00 0.00 0.00 47 1013.2
20260831054559 43 166 0.0 0.0 0.00 0.00 0.00 45 1013.1
20260831053057 44 360 0.0 3.0 0.00 0.00 0.00 44 1013.1
20260831051556 44 155 0.0 4.0 0.00 0.00 0.00 42 1013.0
20260831050131 46 46 0.0 0.0 0.00 0.00 0.00 41 1012.9
20260831044554 48 10 0.0 0.0 0.00 0.00 0.00 38 1012.7
20260831043052 48 12 0.0 1.0 0.00 0.00 0.00 37 1012.5
20260831041551 48 46 0.0 1.0 0.00 0.00 0.00 36 1012.4
20260831040052 48 31 0.0 2.0 0.00 0.00 0.00 38 1012.0
20260831034549 49 26 0.0 1.0 0.00 0.00 0.00 35 1012.0
20260831033047 51 33 0.0 2.0 0.00 0.00 0.00 34 1011.7
20260831031547 52 355 0.0 3.0 0.00 0.00 0.00 34 1011.4
20260831030051 53 44 0.0 2.0 0.00 0.00 0.00 33 1011.1
20260831024543 55 312 0.0 1.0 0.00 0.00 0.00 31 1010.8
20260831023042 58 360 1.0 4.0 0.00 0.00 0.00 28 1010.5
20260831021543 59 360 1.0 3.0 0.00 0.00 0.00 26 1010.4
20260831020041 61 360 0.0 4.0 0.00 0.00 0.00 25 1010.1
20260831014548 62 317 0.0 5.0 0.00 0.00 0.00 23 1010.1
20260831013041 63 341 1.0 5.0 0.00 0.00 0.00 23 1010.1
20260831011541 64 311 1.0 5.0 0.00 0.00 0.00 22 1010.1
20260831010039 64 20 2.0 6.0 0.00 0.00 0.00 22 1010.1
20260831004544 65 341 0.0 4.0 0.00 0.00 0.00 22 1010.2
20260831003039 65 234 1.0 6.0 0.00 0.00 0.00 22 1010.2
20260831001539 66 310 1.0 6.0 0.00 0.00 0.00 21 1010.2
20260831000051 66 311 0.0 4.0 0.00 0.00 0.00 21 1010.3
20260830234545 67 299 1.0 3.0 0.00 0.00 0.00 21 1010.2
20260830233053 66 324 2.0 5.0 0.00 0.00 0.00 21 1010.2
20260830231536 67 267 2.0 7.0 0.00 0.00 0.00 19 1010.3
20260830230034 67 333 2.0 9.0 0.00 0.00 0.00 19 1010.4
20260830224534 66 313 2.0 6.0 0.00 0.00 0.00 18 1010.4
20260830223034 67 191 2.0 4.0 0.00 0.00 0.00 16 1010.7
20260830221533 67 340 3.0 9.0 0.00 0.00 0.00 16 1010.6
20260830220053 68 263 1.0 9.0 0.00 0.00 0.00 17 1010.7
20260830214532 67 311 2.0 7.0 0.00 0.00 0.00 15 1010.7
20260830213032 68 314 2.0 5.0 0.00 0.00 0.00 15 1011.0
20260830211530 67 335 2.0 7.0 0.00 0.00 0.00 14 1011.1
20260830210026 66 162 4.0 7.0 0.00 0.00 0.00 17 1011.1
20260830204523 64 329 1.0 8.0 0.00 0.00 0.00 19 1011.1
20260830203023 64 211 1.0 6.0 0.00 0.00 0.00 18 1011.1
20260830201521 65 136 4.0 10.0 0.00 0.00 0.00 17 1011.2
20260830200032 64 11 2.0 6.0 0.00 0.00 0.00 18 1011.1
20260830194519 64 310 1.0 11.0 0.00 0.00 0.00 18 1011.2
20260830193020 64 327 2.0 11.0 0.00 0.00 0.00 19 1011.2
20260830191604 64 194 3.0 11.0 0.00 0.00 0.00 17 1011.2
20260830190018 63 293 1.0 7.0 0.00 0.00 0.00 21 1011.2
20260830184514 62 334 1.0 5.0 0.00 0.00 0.00 18 1011.2
20260830183011 61 315 1.0 7.0 0.00 0.00 0.00 17 1011.3
20260830181510 61 190 0.0 6.0 0.00 0.00 0.00 19 1011.3
20260830180007 60 282 0.0 3.0 0.00 0.00 0.00 21 1011.3
20260830174504 60 311 1.0 7.0 0.00 0.00 0.00 21 1011.3
20260830173005 59 241 0.0 4.0 0.00 0.00 0.00 23 1011.1